Wheeler Army Airfield, HI

12:35 PM HST on August 28, 2016 (GMT -1000)
Wheeler Army Air Field

Weather History for PHHI - June, 2013

Change the Weather History Date:

Sunday, June 30, 2013

  Actual Average Record
Temperature  
Mean Temperature 74 °F -  
Max Temperature 82 °F 79 °F 86 °F (2015)
Min Temperature 66 °F 66 °F 61 °F (2011)
Cooling Degree Days 9    
Growing Degree Days 24 (Base 50)    
Moisture  
Dew Point 64 °F    
Average Humidity 71    
Maximum Humidity 90    
Minimum Humidity 54    
Precipitation  
Precipitation 0.00 in - - ()
Sea Level Pressure  
Sea Level Pressure 30.00 in    
Wind  
Wind Speed 5 mph (ENE)    
Max Wind Speed 17 mph    
Max Gust Speed 21 mph    
Visibility 10 miles    
Events      
Averages and records for this station are not official NWS values.
T = Trace of Precipitation, MM = Missing Value Source: NWS Daily Summary

Daily Weather History Graph

Daily Weather History Graph

Search for Another Location

Airport or City:

Trip Planner

Search our weather history database for the weather conditions in past years. The results will help you decide how hot, cold, wet, or windy it might be!

Date:

Astronomy

Jun. 30, 2013 Rise Set
Actual Time 5:53 AM HST 7:18 PM HST
Civil Twilight 5:28 AM HST 7:43 PM HST
Nautical Twilight 4:58 AM HST 8:13 PM HST
Astronomical Twilight 4:28 AM HST 8:43 PM HST
Moon 12:24 AM HST (6/30) 1:13 PM HST (6/30)
Length of Visible Light 14h 15m
Length of Day
13h 25m
Last Quarter, 43% of the Moon is Illuminated
Jun 30
Last Quarter
Jul 7
New
Jul 15
First Quarter
Jul 22
Full
Jul 29
Last Quarter

Hourly Weather History & Observations

Time (HST) Temp. Heat Index Dew Point Humidity Pressure Visibility Wind Dir Wind Speed Gust Speed Precip Events Conditions
12:55 AM 66.2 °F - 63.3 °F 90% 30.00 in 10.0 mi West 4.6 mph - N/A   Partly Cloudy
1:55 AM 66.7 °F - 63.9 °F 90% 29.99 in 10.0 mi Calm Calm - N/A   Mostly Cloudy
2:55 AM 68.9 °F - 65.3 °F 88% 29.99 in 10.0 mi Calm Calm - N/A   Scattered Clouds
3:55 AM 69.1 °F - 64.8 °F 86% 29.99 in 10.0 mi Calm Calm - N/A   Overcast
4:55 AM 68.0 °F - 64.0 °F 87% 30.00 in 10.0 mi Calm Calm - N/A   Partly Cloudy
5:55 AM 67.6 °F - 64.2 °F 89% 30.01 in 10.0 mi Calm Calm - N/A   Partly Cloudy
6:55 AM 71.2 °F - 66.4 °F 85% 30.02 in 10.0 mi Calm Calm - N/A   Scattered Clouds
7:55 AM 74.7 °F - 64.6 °F 71% 30.03 in 10.0 mi Variable 3.5 mph - N/A   Clear
8:55 AM 77.0 °F - 65.7 °F 68% 30.03 in 10.0 mi ENE 5.8 mph - N/A   Clear
9:55 AM 78.6 °F - 65.5 °F 64% 30.03 in 10.0 mi East 8.1 mph - N/A   Clear
10:55 AM 79.2 °F - 65.7 °F 63% 30.02 in 10.0 mi ENE 8.1 mph - N/A   Scattered Clouds
11:55 AM 81.7 °F 83.5 °F 65.1 °F 57% 30.01 in 10.0 mi ENE 15.0 mph - N/A   Partly Cloudy
12:55 PM 82.8 °F 84.7 °F 65.7 °F 56% 29.99 in 10.0 mi ENE 16.1 mph 20.7 mph N/A   Overcast
1:55 PM 82.4 °F 83.9 °F 64.2 °F 54% 29.98 in 10.0 mi ENE 15.0 mph - N/A   Clear
2:55 PM 82.6 °F 84.1 °F 64.4 °F 54% 29.97 in 10.0 mi NE 17.3 mph - N/A   Clear
3:55 PM 81.5 °F 82.9 °F 64.0 °F 55% 29.96 in 10.0 mi ENE 11.5 mph 17.3 mph N/A   Clear
4:55 PM 80.6 °F 82.0 °F 63.5 °F 56% 29.96 in 10.0 mi ENE 9.2 mph - N/A   Clear
5:55 PM 78.8 °F - 61.3 °F 55% 29.98 in 10.0 mi East 10.4 mph - N/A   Clear
6:55 PM 76.3 °F - 63.7 °F 65% 29.99 in 10.0 mi East 8.1 mph - N/A   Partly Cloudy
7:55 PM 74.3 °F - 64.0 °F 70% 30.01 in 10.0 mi Calm Calm - N/A   Overcast
8:55 PM 73.2 °F - 64.2 °F 73% 30.02 in 10.0 mi NNW 4.6 mph - N/A   Mostly Cloudy
9:55 PM 72.9 °F - 63.9 °F 73% 30.02 in 10.0 mi Variable 3.5 mph - N/A   Mostly Cloudy
10:55 PM 73.0 °F - 64.4 °F 74% 30.02 in 10.0 mi Calm Calm - N/A   Mostly Cloudy
11:55 PM 69.4 °F - 63.3 °F 81% 30.01 in 10.0 mi Variable 4.6 mph - N/A   Partly Cloudy